Location: The Saddle
(36.8333°N, 80.3417°W)
Time: 05:10:01
(UTC-04:00)

Vanguard 2 Rocket - Pass Details

Date: 14 December 2023
Orbit: 553 x 3301 km, 32.9° (Epoch: 07 September)

Event Time Altitude Azimuth Distance (km) Brightness Sun altitude
Rises 20:54:25 0° 274° (W) 7,310 12.3 -44.8°
Reaches altitude 10° 21:05:20 10° 248° (WSW) 6,121 11.5 -47.0°
Maximum altitude 21:10:04 11° 233° (SW) 5,808 11.3 -47.9°
Drops below altitude 10° 21:14:33 10° 218° (SW) 5,681 11.1 -48.8°
Sets 21:23:29 0° 189° (S) 6,011 11.1 -50.6°
